User: anonymous   Login
Location: ???????
(55.4362°N, 38.1183°E)
Time: 09:37:20
(UTC+00:00)
Language:

FALCON 9 DEB - Orbit

View from above orbital plane
View from above orbital plane
View from above satellite
View from above satellite

Ground track
Ground track

The orbit data is extracted from the following two-line orbital elements,

1 46087U 20055BN  21263.77309068  .00019293  00000-0  16359-3 0  9992
2 46087  53.0040  84.7590 0010139 179.5777 180.5249 15.69674312 68657
Epoch (UTC): 20 September 2021 18:33:15
Eccentricity: 0.0010139
inclination: 53.0040°
perigee height: 353 km
apogee height: 366 km
right ascension of ascending node: 84.7590°
argument of perigee: 179.5777°
revolutions per day: 15.69674312
mean anomaly at epoch: 180.5249°
orbit number at epoch: 6865

The dashed part of the orbit path shows where the satellite is in the earth's shadow,  

DLR